Tracking 25711 objects as of 23-May-2022
HD Live streaming from Space Station
objects crossing your sky now

ONEWEB-0257

Track ONEWEB-0257 now!
10-day predictions
ONEWEB-0257 is classified as:


NORAD ID: 48975
Int'l Code: 2021-061J
Perigee: 1,203.4 km
Apogee: 1,206.6 km
Inclination: 87.9 °
Period: 109.4 minutes
Semi major axis: 7575 km
RCS: Unknown
Launch date: July 1, 2021
Source: United Kingdom (UK)
Launch site: VOSTOCHNY COSMODROME (VOSTO)
aabbcc
Your satellite tracking list
Your tracking list is empty




NASA's NSSDC Master Catalog

Two Line Element Set (TLE):
1 48975U 21060J   22142.91668981  .00045767  00000-0  11913+0 0  9994
2 48975  87.9115 164.6766 0002134  81.4785 332.8622 13.16569936 45302
Source of the keplerian elements: AFSPC